Location: Carrières
(48.9495°N, 2.0407°E)
Time: 21:14:08
(UTC+00:00)

Transit 2A Rocket - Pass Details

Date: 28 April 2024
Orbit: 585 x 908 km, 66.7° (Epoch: 18 May)

Event Time Altitude Azimuth Distance (km) Brightness Sun altitude
Rises 17:45:32 0° 324° (NW) 3,302 9.0 11.5°
Reaches altitude 10° 17:47:53 10° 325° (NW) 2,414 8.4 11.1°
Maximum altitude 17:53:31 82° 54° (NE) 875 5.5 10.2°
Drops below altitude 10° 17:59:31 10° 142° (SE) 2,561 7.3 9.2°
Sets 18:02:05 0° 144° (SE) 3,515 8.0 8.8°
